Regional Weather Roundup
Issued by NWS

Home | Current Version | Previous Version | Text Only | Print | Product List | Glossary On
Versions: 1 2 3 4 5 6 7 8 9 10 11 12 13 14 15 16 17 18 19 20 21 22 23 24 25 26 27 28 29 30 31 32 33 34 35 36 37 38 39 40 41 42 43 44 45 46 47 48 49 50
000
ASUS43 KLSX 110957
RWRMO

WEATHER SUMMARY FOR MISSOURI
NATIONAL WEATHER SERVICE SPRINGFIELD MO
400 AM CST WED DEC 11 2019

NOTE: "FAIR" INDICATES FEW OR NO CLOUDS BELOW 12,000 FEET WITH NO
       SIGNIFICANT WEATHER AND/OR OBSTRUCTIONS TO VISIBILITY.
       CURRENT SKY AND/OR WEATHER CONDITIONS ARE NOT AVAILABLE FOR
       CHILLICOTHE AND FARMINGTON.

MOZ001>031-035>038-043-044-053-054-111100-
...NORTHERN AND WESTERN MISSOURI...

CITY           SKY/WX    TMP DP  RH WIND       PRES   REMARKS
KANSAS CTY INT MOCLDY    21  15  78 S9        30.31F WCI  11
LEE`S SUMMIT   CLEAR     26  15  63 SW10      30.34F WCI  16
ST JOSEPH      PTCLDY    24  16  71 S8        30.30F WCI  15

$$
MOZ066>068-077>081-088>096-101>105-111100-
...SOUTHWEST MISSOURI...

CITY           SKY/WX    TMP DP  RH WIND       PRES   REMARKS
SPRINGFIELD    CLEAR     24  16  71 S8        30.37F WCI  15
JOPLIN         CLEAR     29  18  63 SW8       30.41S WCI  21

$$
MOZ032>034-039>042-045>050-055>058-069>072-111100-
...CENTRAL MISSOURI...

CITY           SKY/WX    TMP DP  RH WIND       PRES   REMARKS
COLUMBIA       NOT AVBL
JEFFERSON CITY CLEAR     25  16  68 E3        30.40S
ROLLA          CLEAR     21  15  78 S8        30.38F WCI  11
SEDALIA        CLEAR     23  15  71 S9        30.36F WCI  13
WARRENSBURG      N/A    N/A N/A N/A MISG        N/A

$$
MOZ051-052-059>065-111100-
...EAST CENTRAL MISSOURI...

CITY           SKY/WX    TMP DP  RH WIND       PRES   REMARKS
ST LOUIS INTL  CLEAR     23  16  74 S6        30.40F WCI  16

$$
MOZ072>076-082>087-097>100-106>115-111100-
...SOUTH CENTRAL AND SOUTHEAST MISSOURI...

CITY           SKY/WX    TMP DP  RH WIND       PRES   REMARKS
CAPE GIRARDEAU FAIR      24  21  88 CALM      30.45R
POPLAR BLUFF   FAIR      26  20  77 CALM      30.45S
WEST PLAINS    CLEAR     24  16  71 CALM      30.41R

$$



USA.gov is the U.S. government's official web portal to all federal, state and local government web resources and services.